RH
93 80 52 35 20 20 20 20 21 22 24 25 24 23 22 19 18 19 19 18 17 19 21 19 17 15 14 13 13 13 13 13 14 15 16 17 18 20 22 22 22 22 22
79 43 32 22 20 21 22 24 26 26 26 25 22 20 20 20 19 19 18 19 22 19 17 16 14 13 13 12 13 14 15 16 16 16 17 18 19 22 23 24 24 23 23
37 30 25 22 25 27 27 27 26 26 24 23 23 22 21 20 21 22 23 21 17 17 15 12 12 14 14 15 15 16 16 17 18 18 19 22 23 24 24 26 27 28 30
30 27 26 27 28 29 29 28 26 23 22 25 22 21 19 22 24 25 20 18 17 16 13 14 14 16 18 19 19 20 20 20 22 21 20 23 26 28 29 31 32 32 34
26 26 27 30 30 31 30 28 23 21 19 19 23 22 22 25 25 22 19 18 16 15 15 16 18 18 16 16 16 18 19 21 23 26 24 24 26 29 30 32 35 34 35
28 31 32 31 32 29 26 23 21 25 21 20 24 23 26 25 22 22 19 19 17 17 18 19 16 15 15 14 16 18 19 21 23 27 30 27 27 30 34 36 36 38 35
31 31 32 32 29 26 23 20 20 20 20 22 27 27 26 21 23 24 20 20 21 25 22 18 14 13 12 13 17 21 22 24 24 26 32 34 34 36 38 40 43 42 42
33 33 31 28 26 24 22 20 24 25 28 27 29 27 23 24 26 23 22 24 28 30 26 19 15 13 9 12 20 26 30 29 29 28 33 42 44 44 43 43 46 49 48
34 33 30 28 25 23 24 30 31 34 27 29 28 24 24 27 24 22 27 32 34 35 27 21 16 14 11 14 22 32 38 37 36 34 36 45 53 54 53 51 51 53 48
33 31 29 27 24 26 36 36 41 33 30 27 26 24 22 21 21 28 33 34 40 36 26 23 20 18 20 19 25 36 46 51 46 41 41 46 51 53 55 61 63 59 58
32 30 30 26 29 45 45 46 46 33 32 30 29 24 22 21 25 32 31 42 44 37 26 25 32 29 31 37 38 42 48 56 60 56 54 54 52 58 61 62 60 60 70
36 36 32 34 47 55 57 51 43 35 35 30 28 24 21 25 31 32 37 54 43 36 28 27 35 46 46 51 60 62 62 64 66 65 66 67 67 66 64 71 80 90 86
41 38 44 57 57 62 58 48 43 34 32 28 24 24 27 31 32 30 56 54 46 36 35 32 35 50 55 57 61 66 73 76 76 79 83 87 86 90 96 98 94 91 87
43 60 62 64 62 59 51 44 41 31 25 25 26 30 31 32 29 40 63 54 51 46 38 40 41 40 45 54 65 71 75 77 77 83 88 91 92 88 85 80 78 92 98
81 71 72 66 64 54 51 46 31 28 27 30 35 30 30 30 30 49 68 61 52 52 55 48 47 47 51 49 48 61 75 79 86 85 82 86 85 80 80 75 77 88 89
77 74 68 66 55 53 43 36 34 33 40 39 34 32 32 31 32 48 70 65 56 56 52 68 55 50 52 57 60 57 52 64 75 82 85 81 75 72 69 71 73 82 85
69 74 66 57 50 43 35 41 39 44 42 43 43 42 39 36 33 48 64 66 60 63 66 64 76 70 60 51 54 56 65 64 56 62 73 77 76 71 66 63 62 70 75
70 68 57 44 40 45 47 48 55 57 52 54 53 53 50 47 42 44 56 64 65 65 74 72 63 78 82 78 72 61 58 58 74 75 62 58 71 75 68 60 57 54 59
53 53 46 47 44 49 58 58 61 60 57 57 56 56 65 63 58 54 46 47 56 69 80 87 79 69 75 82 77 75 76 65 61 67 80 79 72 58 64 67 55 55 55
48 56 56 68 74 65 61 63 69 77 80 79 72 67 63 70 75 67 64 56 54 59 64 76 85 76 68 64 84 95 89 80 66 62 62 80 83 77 69 59 58 50 52
51 56 60 62 70 72 75 91 95 93 93 88 91 85 79 71 68 74 78 75 70 61 58 58 68 74 72 66 69 72 86 84 80 74 68 62 67 78 78 67 66 52 47
63 64 70 74 72 70 74 79 77 80 85 90 88 79 94 86 91 86 83 78 80 83 79 71 68 66 67 68 68 73 82 77 94 89 81 73 67 61 66 66 67 67 58
77 82 85 84 84 83 80 79 76 80 90 77 74 82 88 81 81 80 76 80 80 78 76 88 98 97 94 84 80 79 82 91 88 79 91 90 73 70 64 64 60 60 63
81 82 87 84 82 83 85 81 79 66 65 70 72 83 77 73 77 80 80 83 82 76 87 88 88 95 97 96 93 88 90 84 84 78 74 83 77 68 70 68 62 59 59
57 62 63 63 61 59 66 67 64 67 66 64 63 68 89 84 74 77 80 84 84 72 75 84 94 94 98 96 92 89 85 92 95 95 85 82 78 76 79 73 79 73 68
59 56 54 58 67 70 73 68 68 83 72 65 61 64 69 74 82 84 82 84 86 88 88 75 73 79 79 93 89 94 98 93 94 95 93 93 95 94 80 77 77 78 78
Wind_Speed
43 45 48 50 48 47 47 48 50 51 54 58 63 66 69 72 75 77 78 76 76 75 78 77 77 79 78 74 71 68 67 65 66 67 68 66 64 63 62 61 60 58 57
44 47 48 46 47 48 50 52 54 56 60 64 68 72 75 77 78 79 79 76 76 78 80 82 81 75 68 62 59 56 55 52 52 56 59 60 61 62 62 62 61 60 58
47 48 47 48 49 51 54 57 59 62 66 69 72 75 78 78 78 79 76 77 79 84 83 78 68 62 58 56 56 55 54 52 50 49 52 55 58 61 61 62 63 63 62
48 48 49 51 53 55 58 61 64 68 70 74 77 78 79 78 77 77 79 81 84 85 77 65 59 57 57 57 57 57 56 54 51 51 49 51 54 59 61 62 63 64 65
50 51 53 54 57 59 63 65 68 72 75 77 78 78 78 76 76 80 84 85 87 82 69 62 60 60 58 57 56 56 56 54 52 51 50 49 53 56 59 62 63 64 66
52 54 56 58 60 64 67 70 73 74 78 81 80 79 74 75 80 84 89 90 86 76 67 63 61 52 53 52 50 49 50 50 50 50 51 50 50 53 57 60 62 62 61
56 58 60 62 65 68 71 74 76 79 81 80 77 75 75 79 83 89 90 87 77 71 68 64 52 49 45 43 43 44 44 46 46 47 49 50 50 51 54 56 58 59 58
60 62 64 67 70 72 75 78 79 80 80 78 74 74 78 81 86 92 88 74 68 66 63 57 56 51 39 35 37 39 41 42 44 44 45 47 49 51 52 53 54 55 56
64 67 69 71 74 77 78 79 79 81 78 77 76 79 82 85 90 87 69 64 59 56 55 56 53 42 32 27 30 33 36 38 40 41 42 43 46 48 50 50 51 52 55
69 71 73 75 77 79 79 80 80 80 79 79 80 84 87 88 86 67 60 54 47 47 48 47 43 33 24 20 22 26 29 32 36 36 36 38 41 43 45 45 46 48 47
73 76 77 79 82 80 81 80 81 80 81 82 87 89 89 86 66 57 52 43 40 41 40 37 34 30 22 16 14 17 22 24 27 29 28 29 31 32 34 36 38 38 37
77 79 82 84 83 81 80 82 81 81 83 84 88 90 86 66 54 52 39 37 37 35 34 32 27 27 25 20 15 11 12 16 20 23 24 25 26 27 29 28 27 28 29
81 83 84 84 83 82 82 83 82 83 85 87 91 83 65 54 51 41 30 32 35 34 29 27 25 23 23 20 17 15 13 11 11 12 14 18 22 24 24 24 24 24 26
84 84 84 82 82 84 85 85 86 86 89 89 77 62 53 49 44 34 28 29 28 27 26 24 24 22 21 21 19 17 15 14 13 12 12 14 17 19 23 25 24 24 26
84 84 83 83 85 87 87 88 90 88 87 68 53 49 42 42 42 30 29 28 26 23 23 28 22 24 21 21 19 18 17 16 16 18 18 18 19 22 25 26 26 25 26
84 84 84 86 87 87 89 90 89 83 63 51 45 43 41 41 39 32 30 29 28 27 26 23 28 22 21 21 20 20 19 18 19 18 18 18 20 22 24 26 27 27 26
85 86 87 87 87 89 91 86 74 59 55 50 45 45 41 41 38 34 33 31 31 30 31 26 26 28 24 21 20 20 19 18 18 20 21 21 22 22 22 24 27 29 27
87 87 88 88 92 90 83 70 61 59 58 56 51 50 46 43 39 36 35 34 35 34 35 36 30 27 30 29 26 23 24 22 20 19 19 20 21 23 23 23 26 29 28
87 89 92 89 85 76 70 69 67 66 63 60 57 56 53 48 46 44 41 39 40 40 40 41 41 36 33 31 32 29 29 27 27 26 24 22 20 21 24 26 25 27 29
89 87 83 76 74 74 73 72 70 68 65 63 62 61 56 53 51 49 48 48 48 47 46 46 48 47 44 38 36 36 35 32 30 30 29 29 28 25 21 22 25 25 27
81 77 76 75 74 74 72 70 68 68 69 69 67 66 63 62 59 57 56 55 55 55 54 53 54 54 54 49 45 43 43 39 37 36 33 33 31 31 29 24 23 23 24
72 73 71 69 67 68 68 67 69 70 72 73 74 73 71 70 66 65 64 64 63 62 62 60 60 61 60 57 53 51 50 49 45 40 39 36 37 33 33 32 29 27 24
73 72 74 74 75 75 76 77 76 77 77 78 76 79 79 77 76 76 74 72 72 70 69 69 69 70 68 67 63 61 59 57 56 51 46 46 41 41 37 36 33 32 31
79 80 80 81 82 84 84 85 86 85 85 85 85 85 85 85 84 83 81 80 80 79 78 77 75 77 76 75 73 70 69 66 66 64 58 55 53 45 43 43 39 36 33
88 88 88 89 91 91 90 89 90 91 91 89 88 89 89 91 91 89 88 87 88 85 85 83 83 84 83 84 81 78 78 75 73 71 67 63 63 55 51 49 49 45 40
91 91 92 92 93 95 95 94 96 97 96 96 94 93 91 94 97 95 94 94 94 94 92 89 88 90 90 88 87 86 86 82 79 79 78 73 71 66 63 58 54 53 50
Wind_Direction
289 291 292 295 296 296 296 298 298 299 300 301 303 302 301 303 304 304 301 301 301 302 303 301 298 295 292 288 285 283 279 274 271 267 265 265 264 263 262 262 261 259 259
289 290 292 293 293 295 297 297 298 300 302 302 302 303 304 305 304 303 304 304 304 306 305 303 301 298 294 289 287 284 280 277 272 267 263 260 257 258 258 258 259 260 260
291 290 291 293 294 294 296 298 300 302 302 302 303 304 305 306 306 305 306 306 309 308 307 306 302 298 295 290 286 284 281 278 274 268 263 260 256 254 254 256 256 258 258
290 290 291 291 293 296 298 300 302 303 304 305 306 307 307 307 306 308 309 310 309 312 311 308 304 298 293 288 283 280 278 276 273 268 264 259 254 254 252 253 254 255 258
287 287 289 293 295 297 299 301 303 304 306 308 308 308 308 310 310 311 312 313 313 313 312 309 305 298 292 286 281 276 274 272 269 265 261 258 255 253 254 254 255 257 259
287 289 292 294 297 299 301 304 305 307 307 309 309 310 311 310 312 314 315 316 314 313 312 312 306 297 292 284 277 274 269 267 265 263 259 256 255 254 253 254 256 258 262
287 290 294 296 299 302 305 306 307 309 309 309 309 311 311 314 316 316 315 314 314 314 315 316 314 310 296 282 271 267 264 261 260 261 260 258 256 254 254 255 257 259 261
290 292 294 298 302 305 305 306 308 309 311 310 309 310 312 315 315 315 314 313 314 315 318 319 321 318 304 282 271 264 260 257 256 258 259 259 259 259 257 257 258 259 261
292 295 298 301 303 304 305 306 308 310 311 310 310 312 313 314 314 314 313 312 313 315 320 321 323 319 307 289 276 267 261 257 257 258 260 260 259 259 260 261 262 263 264
294 298 299 301 303 304 305 307 309 309 310 310 311 312 314 315 314 312 311 311 310 316 319 324 329 327 317 304 285 272 265 260 258 259 261 262 262 261 261 262 263 264 266
296 297 299 301 304 305 305 306 308 310 309 311 311 314 315 314 314 313 310 306 307 313 320 328 340 346 346 342 318 286 271 264 263 260 263 263 264 263 260 259 261 263 264
295 298 301 303 304 304 306 306 308 309 308 310 312 312 314 313 314 311 303 299 306 313 320 330 344 353 358 0 356 336 299 276 267 263 263 263 262 263 263 259 260 261 265
296 299 301 302 304 304 305 306 306 306 309 309 311 311 310 312 313 306 291 297 305 313 320 331 344 349 349 355 358 355 343 319 294 280 270 266 263 262 260 258 260 263 268
297 298 299 301 301 302 303 304 305 307 308 309 309 308 310 311 310 299 284 292 301 312 325 333 335 344 347 344 344 342 335 319 311 300 286 276 268 267 267 264 259 260 267
296 297 298 299 300 301 303 304 306 309 310 309 309 308 312 310 307 289 280 283 291 300 316 320 334 333 337 343 346 334 320 316 311 301 287 283 276 275 271 266 259 260 267
295 296 297 298 299 301 302 304 305 309 311 310 311 313 313 310 308 288 277 278 286 292 296 307 314 321 330 333 331 336 333 316 302 298 293 280 279 280 270 263 259 261 269
295 294 296 297 298 299 302 304 305 305 310 311 310 309 312 310 309 293 279 276 282 287 291 295 302 308 314 320 324 320 317 324 320 307 292 286 284 283 275 269 261 259 263
292 294 294 296 297 299 299 300 303 304 306 305 304 304 306 305 305 298 284 276 280 282 286 290 290 294 301 308 313 314 313 305 300 308 309 296 287 281 281 275 270 262 260
291 293 294 294 296 298 298 298 298 299 300 300 299 298 297 297 296 296 288 281 278 278 281 284 287 288 288 293 297 300 299 304 299 290 290 293 296 292 282 276 271 268 266
291 293 292 293 295 295 294 296 296 297 296 296 295 294 291 289 287 285 284 283 280 277 277 278 280 283 283 283 285 288 290 293 296 294 287 282 282 284 286 286 279 273 267
292 292 292 292 291 292 292 291 290 291 292 292 291 290 289 288 284 280 277 276 275 276 276 277 276 277 278 280 280 280 281 284 288 287 288 282 278 277 278 275 278 277 272
290 290 289 289 289 290 290 290 291 291 289 289 289 288 285 284 281 278 275 274 273 271 271 272 273 273 274 274 275 275 276 279 277 276 278 279 276 274 273 272 271 271 274
287 286 287 287 287 288 289 289 289 289 290 290 289 287 285 284 281 280 277 273 271 271 270 268 268 269 270 272 272 271 271 272 274 275 272 271 271 272 268 269 269 268 267
284 283 284 285 285 286 287 288 290 290 289 289 288 286 286 284 281 279 279 274 274 273 269 266 266 267 267 267 268 268 268 269 271 271 270 269 269 266 266 267 266 265 263
286 285 285 286 287 287 286 286 287 288 288 288 286 284 283 283 281 280 278 275 274 272 272 268 263 263 264 265 265 266 267 266 266 267 267 267 268 267 263 261 262 262 261
284 284 285 285 284 283 283 285 285 285 285 285 284 283 281 280 279 279 277 277 276 275 274 272 268 266 263 262 263 263 264 263 263 264 264 264 264 263 264 260 258 259 258